GW2062 Weather Reports


Display with metric or nautical units.
time (UTC)temp
F
wind
direction
speed
MPH
gust
MPH
rain 1hr
in
rain 24hr
in
rain mn
in
humidity
%
barometer
mb
20260503171549 61 291 3.0 17.0 0.00 0.00 0.00 43 1007.0
20260503171048 61 263 1.0 11.0 0.00 0.00 0.00 45 1006.9
20260503170546 60 207 0.0 10.0 0.00 0.00 0.00 46 1006.9
20260503150529 57 227 0.0 4.0 0.00 0.00 0.00 45 1007.9
20260503131100 46 301 0.0 1.0 0.00 0.01 0.00 60 1009.0
20260503130559 45 292 0.0 1.0 0.00 0.01 0.00 61 1009.0
20260503110528 31 259 0.0 0.0 0.00 0.01 0.00 89 1009.8
20260503081507 33 259 0.0 0.0 0.00 0.01 0.01 82 1010.6
20260503081008 34 259 0.0 0.0 0.00 0.01 0.01 81 1010.6
20260503080507 34 259 0.0 0.0 0.00 0.01 0.01 80 1010.7
20260503072505 35 224 0.0 0.0 0.00 0.01 0.01 76 1010.7
20260503072005 35 257 0.0 0.0 0.00 0.01 0.01 76 1010.7
20260503071505 35 236 0.0 0.0 0.00 0.01 0.01 76 1010.7
20260503071006 35 281 0.0 0.0 0.00 0.01 0.01 76 1010.6
20260503070509 35 251 0.0 0.0 0.00 0.01 0.01 76 1010.6
20260503055059 34 297 0.0 0.0 0.00 0.01 0.01 80 1010.9
20260503054612 34 231 0.0 0.0 0.00 0.01 0.01 80 1011.0
20260503053559 34 231 0.0 0.0 0.00 0.01 0.01 82 1011.0
20260503053058 34 231 0.0 0.0 0.00 0.01 0.01 82 1011.0
20260503052558 33 96 0.0 0.0 0.00 0.01 0.01 84 1011.0
20260503052058 33 96 0.0 0.0 0.00 0.01 0.01 85 1011.2
20260503051556 33 96 0.0 0.0 0.00 0.01 0.01 85 1011.2
20260503051056 33 96 0.0 0.0 0.00 0.01 0.01 86 1011.2
20260503050555 33 96 0.0 0.0 0.00 0.01 0.01 86 1011.3
20260503050054 33 96 0.0 0.0 0.00 0.01 0.01 87 1011.4
20260503045554 32 96 0.0 0.0 0.00 0.01 0.01 87 1011.4
20260503045053 32 96 0.0 0.0 0.00 0.01 0.01 87 1011.4
20260503044554 32 96 0.0 0.0 0.00 0.01 0.01 87 1011.4
20260503043554 33 96 0.0 0.0 0.00 0.01 0.01 85 1011.5
20260503043057 33 96 0.0 0.0 0.00 0.01 0.01 85 1011.5
20260503042556 33 96 0.0 0.0 0.00 0.01 0.01 84 1011.5
20260503042051 34 96 0.0 0.0 0.00 0.01 0.01 84 1011.6
20260503041551 34 96 0.0 0.0 0.00 0.01 0.01 84 1011.7
20260503041055 34 96 0.0 0.0 0.00 0.01 0.01 84 1011.7
20260503040551 34 96 0.0 0.0 0.00 0.01 0.01 83 1011.7
20260503040055 34 96 0.0 0.0 0.00 0.01 0.01 83 1011.7
20260503035551 35 96 0.0 0.0 0.00 0.01 0.01 82 1011.6
20260503035050 35 96 0.0 0.0 0.00 0.01 0.01 82 1011.7
20260503034551 35 96 0.0 0.0 0.00 0.01 0.01 81 1011.7
20260503033549 35 96 0.0 0.0 0.00 0.01 0.01 82 1011.7
20260503033049 35 96 0.0 0.0 0.00 0.01 0.01 81 1011.8
20260503032549 35 187 0.0 0.0 0.00 0.01 0.01 82 1011.8
20260503032049 35 187 0.0 0.0 0.00 0.01 0.01 82 1011.8
20260503031549 36 187 0.0 0.0 0.00 0.01 0.01 81 1011.8
20260503031051 36 187 0.0 0.0 0.00 0.01 0.01 80 1011.9
20260503030547 36 187 0.0 0.0 0.00 0.01 0.01 79 1011.8
20260503030048 36 187 0.0 0.0 0.00 0.01 0.01 78 1011.9
20260503025547 37 187 0.0 0.0 0.00 0.01 0.01 77 1011.9
20260503025047 37 187 0.0 0.0 0.00 0.01 0.01 77 1012.0
20260503024547 37 187 0.0 0.0 0.00 0.01 0.01 77 1012.1
20260503023545 37 187 0.0 0.0 0.00 0.01 0.01 77 1012.2
20260503023047 37 187 0.0 0.0 0.00 0.01 0.01 76 1012.2
20260503022544 37 187 0.0 0.0 0.00 0.01 0.01 77 1012.3
20260503022045 37 187 0.0 0.0 0.00 0.01 0.01 76 1012.3
20260503021544 37 219 0.0 0.0 0.00 0.01 0.01 76 1012.3
20260503021044 37 174 0.0 0.0 0.00 0.01 0.01 76 1012.3
20260503020545 37 149 0.0 0.0 0.00 0.01 0.01 76 1012.2
20260503020043 37 149 0.0 0.0 0.00 0.01 0.01 77 1012.2
20260503015546 37 148 0.0 0.0 0.00 0.01 0.01 78 1012.2
20260503015043 37 70 0.0 0.0 0.00 0.01 0.01 77 1012.3
20260503014553 37 70 0.0 0.0 0.00 0.01 0.01 78 1012.3
20260503013543 37 70 0.0 0.0 0.00 0.01 0.01 77 1012.2
20260503013045 37 70 0.0 0.0 0.00 0.01 0.01 77 1012.2
20260503012543 38 70 0.0 0.0 0.00 0.01 0.01 77 1012.2
20260503012043 38 70 0.0 0.0 0.00 0.01 0.01 77 1012.2
20260503011542 38 70 0.0 0.0 0.00 0.01 0.01 76 1012.2
20260503011044 38 70 0.0 0.0 0.00 0.01 0.01 76 1012.2
20260503010543 39 70 0.0 0.0 0.00 0.01 0.01 75 1012.2
20260503010048 39 70 0.0 0.0 0.00 0.01 0.01 73 1012.2
20260503005544 39 70 0.0 0.0 0.00 0.01 0.01 72 1012.2
20260503005042 40 70 0.0 0.0 0.00 0.01 0.01 71 1012.1
20260503004546 41 70 0.0 0.0 0.00 0.01 0.01 68 1012.1
20260503003541 41 70 0.0 0.0 0.00 0.01 0.01 68 1012.1
20260503003046 42 70 0.0 0.0 0.00 0.01 0.01 65 1012.0
20260503002541 42 70 0.0 0.0 0.00 0.01 0.01 65 1012.0
20260503002041 43 70 0.0 0.0 0.00 0.01 0.01 64 1012.1
20260503001547 43 70 0.0 0.0 0.00 0.01 0.01 62 1012.1
20260503001039 44 70 0.0 0.0 0.00 0.01 0.01 61 1012.0
20260503000539 44 70 0.0 0.0 0.00 0.01 0.01 60 1012.1
20260503000043 45 69 0.0 0.0 0.00 0.01 0.01 59 1012.2
20260502235539 45 69 0.0 0.0 0.00 0.01 0.01 58 1012.1
20260502235038 45 69 0.0 0.0 0.00 0.01 0.01 58 1012.2
20260502234549 45 69 0.0 0.0 0.00 0.01 0.01 59 1012.1
20260502233540 45 69 0.0 0.0 0.00 0.01 0.01 58 1012.2
20260502233042 44 51 0.0 0.0 0.00 0.01 0.01 59 1012.2
20260502232538 44 56 0.0 0.0 0.00 0.01 0.01 59 1012.3
20260502232038 44 56 0.0 0.0 0.00 0.01 0.01 62 1012.3
20260502231538 44 56 0.0 0.0 0.00 0.01 0.01 60 1012.4
20260502231038 44 108 0.0 0.0 0.00 0.01 0.01 59 1012.4
20260502230538 44 99 0.0 0.0 0.00 0.01 0.01 59 1012.4
20260502230038 44 27 0.0 0.0 0.00 0.01 0.01 61 1012.4
20260502225537 44 27 0.0 0.0 0.00 0.01 0.01 60 1012.4
20260502225037 44 72 0.0 0.0 0.00 0.01 0.01 62 1012.4
20260502224543 45 56 0.0 0.0 0.00 0.01 0.01 59 1012.4
20260502223533 45 23 0.0 0.0 0.00 0.01 0.01 61 1012.4
20260502223040 44 30 0.0 0.0 0.00 0.01 0.01 61 1012.5
20260502222533 44 40 0.0 0.0 0.00 0.01 0.01 61 1012.5
20260502222032 44 25 0.0 0.0 0.00 0.01 0.01 59 1012.6
20260502221532 44 51 0.0 0.0 0.00 0.01 0.01 60 1012.6
20260502221033 44 89 0.0 0.0 0.00 0.01 0.01 61 1012.6
20260502220531 44 120 0.0 0.0 0.00 0.01 0.01 61 1012.6
20260502220031 44 84 0.0 0.0 0.00 0.01 0.01 61 1012.7
20260502215531 44 27 0.0 0.0 0.00 0.01 0.01 62 1012.7
20260502215029 43 52 0.0 0.0 0.00 0.01 0.01 63 1012.7
20260502214530 43 75 0.0 0.0 0.00 0.01 0.01 62 1012.7
20260502213533 43 72 0.0 0.0 0.00 0.01 0.01 62 1012.7
20260502213032 44 85 0.0 0.0 0.00 0.01 0.01 63 1012.6
20260502212533 43 136 0.0 0.0 0.00 0.01 0.01 64 1012.6
20260502212032 43 56 0.0 0.0 0.00 0.01 0.01 65 1012.7
20260502211534 43 11 0.0 0.0 0.00 0.01 0.01 64 1012.7
20260502211032 43 8 0.0 0.0 0.00 0.01 0.01 64 1012.7
20260502210531 43 61 0.0 0.0 0.00 0.01 0.01 65 1012.7
20260502210036 43 51 0.0 0.0 0.00 0.01 0.01 64 1012.7
20260502205532 43 120 0.0 0.0 0.00 0.01 0.01 66 1012.6
20260502205031 43 58 0.0 0.0 0.00 0.01 0.01 65 1012.7
20260502204531 43 51 0.0 0.0 0.00 0.01 0.01 65 1012.7
20260502203530 43 65 0.0 0.0 0.00 0.01 0.01 64 1012.8
20260502203027 43 109 0.0 0.0 0.00 0.01 0.01 66 1012.9
20260502202527 43 109 0.0 0.0 0.00 0.01 0.01 64 1012.9
20260502202027 43 58 0.0 0.0 0.00 0.01 0.01 64 1012.9
20260502201527 43 58 0.0 0.0 0.00 0.01 0.01 64 1012.9
20260502201026 43 51 0.0 0.0 0.00 0.01 0.01 63 1013.0
20260502200528 43 27 0.0 0.0 0.00 0.01 0.01 64 1013.1
20260502200026 43 30 0.0 0.0 0.00 0.01 0.01 63 1013.1
20260502195526 43 112 0.0 0.0 0.00 0.01 0.01 63 1013.1
20260502195025 44 60 0.0 0.0 0.00 0.01 0.01 63 1013.1
20260502194531 44 51 0.0 0.0 0.00 0.01 0.01 65 1013.2
20260502193523 43 279 0.0 0.0 0.00 0.01 0.01 66 1013.3
20260502193022 43 94 0.0 0.0 0.00 0.01 0.01 65 1013.3
20260502192523 43 122 0.0 0.0 0.00 0.01 0.01 64 1013.4
20260502192021 43 92 0.0 0.0 0.00 0.01 0.01 64 1013.5
20260502191521 43 55 0.0 0.0 0.00 0.01 0.01 66 1013.6
20260502191023 43 129 0.0 0.0 0.00 0.01 0.01 67 1013.6
20260502190521 43 45 0.0 0.0 0.00 0.01 0.01 66 1013.6
20260502190025 43 236 0.0 0.0 0.00 0.01 0.01 67 1013.7
20260502185520 42 14 0.0 0.0 0.00 0.01 0.01 64 1013.7
20260502185021 43 61 0.0 0.0 0.00 0.01 0.01 67 1013.6
20260502184522 43 141 0.0 0.0 0.00 0.01 0.01 64 1013.7
20260502183521 44 100 0.0 0.0 0.00 0.01 0.01 67 1013.6
20260502183019 44 37 0.0 0.0 0.00 0.01 0.01 68 1013.7
20260502182518 43 41 0.0 0.0 0.00 0.01 0.01 68 1013.8
20260502182019 42 38 0.0 0.0 0.00 0.01 0.01 67 1013.9
20260502181527 42 44 0.0 0.0 0.00 0.01 0.01 68 1013.8
20260502181016 42 47 0.0 0.0 0.00 0.01 0.01 69 1013.9
20260502180517 42 62 0.0 0.0 0.00 0.01 0.01 69 1013.9